Location: Dilsberg
(49.3983°N, 8.8354°E)
Time: 23:55:50
(UTC+00:00)

Spot 2 Rocket - Pass Details

Date: 19 May 2025
Orbit: 753 x 766 km, 98.3° (Epoch: 23 June)

Event Time Altitude Azimuth Distance (km) Brightness Sun altitude
Exits shadow 20:17:46 10° 160° (SSE) 2,288 5.4 -9.6°
Reaches altitude 10° 20:17:48 10° 160° (SSE) 2,274 5.4 -9.6°
Maximum altitude 20:22:48 81° 73° (ENE) 771 3.5 -10.2°
Drops below altitude 10° 20:27:52 10° 347° (NNW) 2,297 7.0 -10.7°
Sets 20:30:11 0° 347° (NNW) 3,229 8.0 -10.9°
